Theta_e
346 347 346 346 345 345 343 340 336 331 330 330 330 330 330 328 327 328 328 328 328 328 328 328 327 327 327 326 326 326 326 328 330 330 332 333 336 337 338 339 340 340 341 342 342 342 342 341 340 340 341 342 343 344 345 345 344 345 345 345 344 344 342 341 340 339 337 338 338 338 335 333 332 332 330 328 329 329 330 332 338 344 344 344 346
346 347 347 346 346 345 345 344 341 337 334 330 329 330 330 330 329 329 329 329 328 327 327 327 327 327 327 326 326 326 325 326 328 329 330 331 333 335 337 338 338 339 339 340 340 341 341 342 341 341 341 341 340 340 342 343 343 344 345 344 342 341 341 341 341 339 336 335 335 335 336 334 331 331 330 329 329 328 328 329 334 340 342 342 344
347 347 347 346 346 345 345 345 344 343 340 337 333 330 329 329 329 329 329 329 328 328 327 327 327 328 328 328 328 327 327 326 326 327 328 329 330 332 335 337 337 338 338 338 339 340 340 340 341 341 341 341 341 340 340 340 341 341 341 341 340 339 340 341 341 340 337 334 333 333 333 333 330 330 330 330 329 329 329 329 331 336 340 341 343
347 347 347 346 347 346 346 345 345 344 344 342 340 337 334 331 329 328 328 329 328 328 327 328 328 328 328 329 329 328 327 327 326 326 327 328 329 330 332 334 337 337 338 338 338 338 338 339 338 339 340 341 341 341 340 339 339 340 339 339 339 339 339 339 339 338 337 335 333 332 332 331 330 329 329 330 329 329 330 332 332 334 337 340 343
346 347 347 347 347 346 346 345 345 345 344 344 344 343 342 338 334 331 329 328 328 328 327 328 328 328 327 327 327 327 327 327 326 326 326 327 328 329 330 331 334 337 338 338 338 338 338 337 337 338 337 338 339 340 340 340 340 340 340 339 338 337 337 337 337 337 335 334 332 332 332 332 331 330 329 329 328 327 330 333 334 334 336 340 345
347 347 347 347 347 346 346 345 345 345 345 345 345 345 345 344 342 338 333 330 329 327 327 327 327 327 326 326 326 326 326 327 327 327 326 327 327 328 330 330 331 334 337 338 338 338 338 337 337 337 336 336 336 337 338 338 339 339 339 337 336 334 335 336 336 334 332 332 331 330 331 333 332 330 329 329 327 328 330 331 334 336 336 341 345
347 347 347 347 347 346 346 346 346 346 346 345 346 345 346 346 346 345 342 338 334 331 329 328 327 327 326 326 326 326 326 327 327 327 327 327 326 327 330 330 330 331 334 336 337 338 338 337 338 338 336 335 335 335 336 336 336 337 337 336 335 333 334 333 333 332 331 332 332 332 332 333 332 330 329 329 328 329 332 331 334 337 338 342 347
347 347 347 347 347 347 347 347 346 347 346 345 346 346 346 347 347 347 347 345 342 338 334 332 330 329 327 327 326 326 326 327 327 327 326 327 327 328 329 330 330 330 331 332 334 336 337 338 337 337 336 335 335 335 335 336 336 336 336 336 336 335 333 332 331 332 332 333 332 332 333 332 330 329 329 330 330 331 332 331 334 338 339 341 346
347 348 347 347 348 347 347 347 347 347 346 346 346 346 347 347 348 349 348 349 348 345 342 339 336 334 331 329 328 327 328 328 328 329 328 329 329 329 330 330 330 329 330 330 331 333 334 336 336 336 335 335 335 335 335 335 336 336 336 336 336 335 334 332 332 332 333 333 333 333 333 331 330 330 329 330 331 331 332 333 335 337 338 341 345
347 347 347 348 348 347 348 347 347 347 347 347 347 347 348 348 348 349 350 351 351 349 347 345 343 340 337 334 333 332 331 331 331 331 332 332 332 331 332 331 330 330 329 330 331 331 332 333 333 334 335 335 334 334 334 335 334 335 335 334 334 334 334 332 332 332 332 332 332 333 333 330 329 331 331 331 332 332 333 334 335 336 337 339 342
348 348 348 348 348 347 348 347 348 348 347 347 347 348 349 349 349 350 351 352 352 352 351 349 347 345 343 341 339 337 336 335 334 334 334 334 334 334 333 333 332 330 330 330 331 331 331 332 333 334 334 334 333 332 332 333 333 333 333 333 332 333 333 332 331 331 331 332 332 335 336 333 331 334 335 334 335 335 335 335 335 336 338 339 340
348 348 348 348 348 348 348 348 348 348 348 348 348 348 349 349 350 351 351 352 353 353 353 352 350 349 347 346 344 341 339 337 336 335 335 335 336 335 335 335 334 332 330 330 331 331 331 332 332 333 334 333 333 332 332 331 331 331 331 332 332 333 332 331 330 330 330 332 336 338 338 336 335 336 337 339 340 341 340 340 339 339 339 340 341
349 349 349 349 349 349 349 349 349 349 348 348 349 349 349 350 351 351 352 353 353 354 354 354 353 352 350 349 346 343 340 338 336 337 336 336 336 336 336 336 335 333 331 331 332 332 331 331 332 333 334 333 334 333 333 331 330 330 331 332 332 332 332 331 330 330 330 333 338 339 338 340 339 337 339 343 345 345 345 345 344 342 341 341 344
350 349 350 349 350 350 349 349 350 350 350 350 350 350 350 351 352 352 352 353 354 354 355 355 355 355 353 351 349 346 342 338 337 338 337 337 337 337 338 337 337 335 332 332 332 333 332 332 332 333 334 334 334 334 333 332 331 331 331 331 332 332 332 333 331 331 331 334 337 337 337 342 343 340 341 345 346 346 347 346 345 343 343 342 343
352 351 351 351 351 351 351 351 352 352 352 352 352 352 352 352 352 353 354 354 355 355 356 356 356 356 355 354 352 349 343 339 338 338 338 338 338 338 339 339 338 337 334 333 333 333 333 333 332 332 333 333 333 333 333 332 332 332 332 332 332 332 332 333 333 333 333 334 337 338 338 343 345 344 344 346 346 346 345 344 343 342 343 343 342
353 353 353 353 353 353 353 353 353 353 354 354 354 354 354 354 354 354 355 355 355 356 356 357 357 358 357 357 355 352 344 339 339 339 338 339 338 339 339 339 340 339 336 335 334 333 333 334 333 332 331 331 332 332 332 332 332 332 332 332 332 332 332 332 333 333 334 333 334 335 337 341 344 346 347 347 347 346 344 342 340 341 343 343 342
355 355 355 354 355 355 355 355 355 355 355 356 356 355 353 352 353 353 354 355 356 356 357 358 358 359 358 358 356 353 345 339 339 339 338 339 339 339 340 340 341 340 338 335 335 334 334 333 333 333 331 330 331 331 331 332 332 332 332 332 332 332 331 331 331 332 333 332 332 333 333 336 341 344 346 347 346 345 343 339 338 341 343 343 342
356 357 357 357 357 357 357 356 356 357 356 356 357 356 352 347 348 351 352 354 355 356 357 358 359 359 360 359 357 353 346 340 339 340 339 340 340 340 340 341 341 341 339 337 336 335 335 334 334 334 332 331 330 330 331 331 332 332 332 332 332 331 330 330 330 330 331 332 333 333 333 334 336 339 341 342 342 341 341 340 340 342 342 343 343
356 356 357 358 358 358 358 358 358 358 357 357 357 357 355 351 349 351 350 351 355 358 357 357 359 361 361 360 359 356 350 344 342 341 339 340 340 341 340 341 342 342 340 338 337 336 335 334 334 333 332 330 330 330 330 331 331 331 331 332 332 331 328 328 329 329 330 331 332 333 334 334 336 337 339 340 340 341 341 341 342 343 344 344 345
356 357 357 357 357 358 358 359 359 359 359 358 357 356 355 353 352 354 354 354 357 360 359 357 359 361 362 362 361 359 355 348 342 340 339 340 340 341 341 342 342 342 341 338 338 336 336 335 334 333 332 330 329 329 329 330 330 331 332 332 331 329 328 329 329 330 331 331 332 334 335 336 339 341 341 342 343 343 343 344 344 346 347 347 346
357 358 358 358 357 357 356 357 357 357 358 358 357 357 356 355 354 356 358 358 360 362 362 360 361 362 362 363 363 361 360 355 348 342 341 341 342 342 342 341 341 342 341 339 338 338 337 336 334 333 332 331 330 329 329 329 331 331 331 330 329 329 329 329 330 331 333 334 333 334 335 337 340 341 341 342 343 344 347 348 348 348 349 348 348
354 357 358 359 359 358 358 357 356 356 357 357 357 357 356 356 356 358 360 360 361 362 363 363 362 363 363 363 363 362 362 360 356 351 346 344 343 343 343 341 341 342 343 342 340 339 337 335 334 333 334 335 334 334 335 335 337 336 333 331 332 332 332 334 336 337 339 338 337 336 336 337 338 339 340 341 343 346 349 350 349 349 349 348 347
345 350 354 356 358 359 360 360 360 358 358 358 357 357 357 358 359 360 360 361 361 362 362 363 363 364 364 364 364 363 362 362 361 358 353 349 346 344 342 342 342 344 344 342 340 340 339 337 336 335 336 337 337 338 339 341 343 342 338 338 340 340 341 343 344 344 344 343 342 341 340 339 339 339 340 341 343 347 350 350 348 349 350 350 350
337 340 345 350 355 358 359 361 362 361 360 360 359 359 359 359 359 360 360 361 361 361 362 362 363 364 364 364 364 363 363 363 362 361 360 356 351 346 344 343 344 344 344 343 342 342 341 340 339 339 340 340 340 341 342 344 347 346 345 346 347 348 348 349 349 349 348 347 346 345 344 342 341 340 340 342 345 347 348 348 349 350 351 353 353
334 334 336 340 347 353 357 359 361 361 361 361 360 360 360 360 360 360 360 361 361 362 362 362 362 363 364 364 365 364 363 363 362 362 361 360 357 353 349 347 346 345 345 343 343 343 343 343 343 344 344 345 344 345 346 347 349 349 349 349 350 351 352 352 352 352 352 350 349 349 348 346 345 344 344 345 346 348 348 347 348 349 350 351 352
335 333 333 334 338 345 352 357 359 361 361 360 359 359 360 360 360 358 359 361 361 361 361 362 363 363 363 363 364 364 364 363 363 363 362 361 360 358 355 352 350 348 347 345 345 345 345 346 347 348 348 348 349 349 349 349 350 351 351 351 352 353 354 354 353 353 353 352 352 351 352 350 348 347 347 347 348 347 346 345 346 348 349 350 350
337 333 330 331 335 340 346 354 358 360 361 361 360 359 360 361 360 358 359 360 361 362 362 363 363 363 363 362 363 364 364 364 363 363 362 361 361 360 359 357 354 353 351 348 347 348 348 349 351 352 352 352 352 351 351 351 351 352 352 352 353 354 354 354 354 354 353 353 354 354 354 353 351 349 348 347 348 347 346 347 350 351 352 351 351
337 334 330 329 333 338 345 352 358 360 360 361 361 360 360 360 359 357 356 357 359 361 361 362 362 361 360 361 362 362 363 364 363 363 362 362 362 361 361 359 358 356 353 350 349 349 350 351 353 354 354 354 354 353 352 352 351 351 350 351 352 354 354 354 354 354 353 354 355 355 355 355 352 349 349 349 349 348 349 350 352 353 353 353 352
337 336 332 329 329 335 342 350 357 361 361 361 362 362 360 359 358 356 356 356 356 357 359 360 359 357 357 359 360 361 361 362 362 362 362 362 361 361 360 360 359 358 356 353 352 352 352 353 353 354 354 354 354 354 353 352 351 351 350 350 351 352 354 354 353 352 353 354 355 356 356 356 353 350 350 350 351 351 351 353 354 356 355 354 353
336 337 334 328 325 332 340 346 354 361 362 362 363 363 361 359 358 356 356 356 355 355 357 358 358 358 358 360 360 361 361 361 361 361 361 361 361 361 361 360 360 359 358 356 355 354 354 354 354 354 354 353 354 353 353 352 352 351 350 350 352 352 352 352 351 352 353 354 356 356 356 356 354 352 351 352 352 354 355 356 356 357 355 354 353
336 337 337 332 329 335 341 344 350 358 362 362 363 363 363 360 359 357 357 357 358 359 360 360 361 361 361 361 361 361 362 362 363 363 362 361 361 361 361 360 360 360 358 357 356 356 355 355 355 355 355 355 354 354 354 353 353 352 352 352 352 351 350 350 351 352 353 355 356 356 357 357 356 354 354 354 355 356 356 357 356 355 354 354 353
336 337 338 338 338 340 342 343 347 353 359 362 364 365 364 362 360 358 358 359 360 361 361 361 362 362 361 362 362 362 362 362 363 363 363 362 362 362 362 361 361 360 359 358 357 357 356 356 356 356 356 356 355 354 354 354 354 354 353 352 351 349 348 348 350 352 354 355 356 356 357 358 357 355 355 355 355 356 357 356 356 355 354 353 352
336 337 338 339 340 341 342 343 344 349 355 360 363 364 365 365 363 361 361 362 362 362 362 361 361 361 361 362 362 362 362 363 363 363 363 362 362 363 362 362 361 360 359 358 358 357 357 356 357 356 356 356 355 354 354 354 355 355 353 351 348 347 347 349 352 354 356 356 356 356 357 357 357 356 356 356 356 356 357 357 356 355 354 353 351
336 337 337 339 340 341 342 344 344 346 349 355 360 362 363 364 364 364 364 364 363 363 362 362 362 362 362 362 362 362 363 363 364 364 364 363 363 363 362 362 362 361 360 359 358 358 357 357 356 356 357 356 355 354 354 354 354 353 351 350 348 348 350 351 353 355 356 356 356 356 356 356 356 356 356 357 357 357 357 356 355 355 353 353 353
334 336 338 340 341 342 342 343 344 345 346 350 355 359 361 362 363 364 364 363 363 363 362 362 363 363 363 363 362 362 363 364 363 364 364 364 364 363 362 361 361 361 361 360 359 358 358 357 357 357 356 357 355 353 353 353 353 352 350 350 349 350 351 353 355 356 356 356 355 355 354 354 354 355 356 356 356 357 356 355 355 354 353 353 353
332 335 338 339 341 342 343 344 345 346 346 347 350 354 358 361 363 363 362 362 362 362 362 362 363 364 364 364 364 364 364 364 364 364 364 364 363 363 362 363 363 363 362 361 360 360 359 358 358 357 357 357 355 353 352 353 352 351 350 350 350 352 353 354 355 356 356 355 354 353 353 353 352 352 354 356 355 356 356 354 353 352 352 351 353
329 334 336 338 340 341 342 343 344 345 346 346 347 349 353 357 361 362 362 362 362 363 363 363 364 364 363 363 364 364 365 364 364 365 364 364 364 363 364 364 363 363 364 363 362 361 360 359 358 358 358 357 356 355 355 354 353 352 351 351 352 353 354 355 356 357 357 356 354 353 353 353 350 349 352 355 355 355 355 354 352 352 352 351 350
326 331 335 337 338 340 341 342 343 343 344 345 346 347 349 351 355 358 360 361 362 362 363 363 364 364 364 364 363 365 365 365 365 365 365 365 365 364 364 364 364 364 364 364 363 362 362 361 360 360 359 358 358 358 357 356 355 354 353 353 354 354 355 356 357 357 357 357 355 353 352 352 351 350 352 356 355 354 354 353 352 352 351 349 347
323 327 332 335 336 337 339 340 341 341 342 342 344 345 346 348 351 354 355 357 357 359 359 361 362 362 363 363 364 365 365 365 366 366 365 365 365 365 365 365 364 364 363 364 363 363 363 362 362 361 361 360 360 359 359 358 357 356 355 355 355 355 356 357 357 357 357 356 354 353 353 353 353 354 354 355 355 354 354 354 351 349 347 345 343
322 325 329 333 334 336 337 337 338 338 339 339 340 341 343 345 347 350 352 353 354 354 355 357 358 360 360 361 362 363 364 365 365 365 366 366 365 364 364 364 365 364 364 364 364 364 363 363 363 363 361 361 360 361 360 359 358 357 357 356 356 357 358 357 357 357 357 356 354 354 353 353 354 355 356 356 355 354 354 352 348 346 343 341 340
321 323 326 329 332 333 334 334 335 336 337 337 338 338 339 340 342 345 347 349 350 351 352 353 355 356 357 357 357 359 361 363 363 364 365 364 363 362 361 362 363 364 363 363 364 364 364 364 364 363 363 362 362 361 361 359 359 358 358 358 358 358 358 358 357 357 357 356 355 353 351 351 353 355 354 355 355 353 351 348 345 343 342 341 340
321 323 325 326 328 330 330 330 331 331 333 335 337 337 337 338 339 340 342 344 346 347 349 350 352 353 353 354 354 355 357 359 360 361 362 362 362 361 361 361 361 362 363 363 364 365 366 366 365 365 364 363 362 361 361 360 360 359 359 359 358 359 358 357 357 356 356 355 354 352 351 352 353 355 354 353 353 351 348 347 345 343 341 339 338
322 324 325 326 326 327 328 327 327 327 329 332 335 336 335 336 337 338 339 340 342 343 345 347 348 349 351 352 353 353 354 355 356 357 358 359 359 359 359 360 360 362 363 364 365 366 366 366 365 365 365 363 362 361 361 360 360 360 359 358 357 358 358 357 356 356 356 355 353 352 352 353 354 354 353 351 349 348 346 345 342 340 338 336 333
322 324 325 326 327 327 326 324 324 325 328 330 333 334 334 334 335 335 337 338 339 341 342 344 346 347 349 350 351 352 353 353 354 355 356 357 357 357 358 358 359 360 362 363 364 365 366 365 364 364 364 364 363 361 360 360 360 359 358 355 355 357 358 356 355 355 354 353 351 352 353 352 352 351 350 348 347 345 343 340 336 335 334 332 331
321 322 323 325 326 327 326 324 324 326 329 331 333 333 333 332 332 333 334 336 337 338 341 343 345 347 348 349 349 350 351 352 353 353 354 354 355 355 356 357 357 359 360 362 363 363 363 363 362 361 361 363 362 362 361 360 359 358 356 355 355 356 357 355 354 354 353 352 352 352 351 350 349 348 346 344 341 339 336 333 332 331 331 331 331
320 320 321 323 324 325 326 326 327 328 330 331 332 332 331 331 330 331 331 333 334 336 338 340 342 344 346 347 349 349 349 349 350 350 351 352 352 353 353 354 355 356 357 358 359 359 359 359 359 359 359 360 360 359 358 357 355 355 355 355 355 354 353 353 352 352 351 351 350 349 347 346 345 343 341 338 335 333 331 330 331 330 330 330 330
319 320 320 322 324 325 326 327 328 329 330 330 331 330 330 329 328 328 329 330 331 332 334 336 338 340 342 344 345 345 345 346 346 347 347 348 348 349 349 350 352 352 352 353 353 354 354 355 355 354 353 353 354 353 352 352 351 351 350 350 351 351 350 349 348 349 349 348 347 344 343 341 339 337 335 333 332 331 330 330 330 330 330 330 330
318 319 321 322 323 324 326 327 328 328 329 329 329 328 327 326 325 325 326 327 328 329 331 332 334 336 338 338 338 339 340 341 342 342 343 342 341 340 340 342 345 347 347 347 348 348 349 350 350 347 346 346 347 348 349 348 347 346 345 344 345 346 346 346 345 346 346 345 342 339 337 335 334 333 332 332 331 331 331 330 330 330 330 329 329
318 319 321 322 323 323 324 325 326 326 327 327 327 326 325 324 323 323 323 324 325 326 328 329 330 331 332 332 332 333 333 334 334 335 335 335 333 330 329 330 334 337 338 340 342 344 345 345 344 343 342 343 343 344 345 345 343 341 340 339 338 340 343 345 345 344 343 341 336 332 330 330 330 331 331 331 331 330 330 329 329 328 328 327 327
318 319 321 322 322 321 321 322 323 324 325 325 325 323 322 322 321 321 321 321 322 323 324 324 324 325 325 325 326 327 328 327 327 328 328 328 326 325 324 325 327 330 334 336 338 339 340 341 340 339 340 340 339 339 340 340 339 337 336 335 334 334 337 339 339 338 336 334 332 329 328 328 328 329 329 329 329 329 328 327 327 327 326 326 326
317 318 319 320 319 318 317 318 319 321 323 323 323 322 321 320 320 320 320 320 320 320 321 321 320 320 320 320 321 323 323 323 322 323 324 324 323 323 322 321 320 322 327 331 333 333 333 334 334 335 336 337 336 335 335 335 334 333 332 331 329 329 330 331 331 330 330 329 329 328 327 327 327 327 327 327 327 327 326 326 326 325 325 324 324
Wind_Speed
43 41 38 37 35 33 32 32 32 33 33 35 35 35 34 33 31 30 28 27 25 23 22 21 20 18 17 16 14 13 12 11 12 13 15 16 16 15 13 12 12 11 10 10 10 10 10 11 13 14 15 14 15 15 14 14 13 12 12 12 13 14 14 15 16 16 13 11 9 8 9 10 9 10 12 12 11 11 11 11 11 10 9 8 9
44 43 41 39 38 35 33 32 32 32 33 34 35 35 36 35 33 32 32 30 29 27 25 23 22 21 20 19 18 17 15 14 13 14 15 15 16 16 16 15 14 13 13 13 12 12 12 12 13 14 15 16 16 17 17 17 16 15 15 15 15 15 15 15 16 17 16 13 10 8 8 10 9 10 12 13 13 13 12 11 9 8 9 10 10
44 43 42 41 40 38 36 34 33 33 33 34 34 35 35 35 35 35 34 33 32 31 29 26 25 24 23 22 22 21 20 18 16 16 16 16 16 17 18 18 17 15 14 14 13 14 14 14 13 13 14 15 15 15 16 17 17 17 16 16 16 15 15 15 16 18 18 16 12 9 9 9 9 10 12 13 14 15 14 13 10 8 9 11 12
45 44 44 42 41 40 39 38 36 36 35 34 34 33 34 35 36 36 36 36 35 34 32 30 28 27 26 26 25 24 23 22 21 19 18 17 18 18 18 19 19 18 17 16 15 15 15 15 14 13 14 15 15 15 15 16 16 16 16 16 16 15 15 15 16 17 19 18 15 12 11 11 9 10 13 14 14 14 15 15 12 9 9 11 12
46 45 45 43 43 42 42 40 40 38 37 36 34 33 33 34 35 36 36 37 37 36 35 33 32 31 29 28 27 26 26 25 24 23 21 20 19 19 19 20 20 20 20 18 17 16 16 16 16 15 15 16 16 16 16 16 16 17 16 15 15 15 15 16 16 17 18 19 18 15 13 12 10 10 12 15 15 15 15 15 13 10 8 9 11
46 46 45 44 44 44 43 42 41 40 38 37 35 34 33 33 33 34 36 37 37 37 37 36 36 34 32 31 30 29 28 27 27 26 24 23 22 21 21 21 21 22 21 20 20 19 18 18 17 17 17 17 17 17 17 17 17 17 17 16 15 16 16 16 16 17 18 19 19 17 14 12 11 10 11 14 16 17 17 16 14 12 9 8 9
46 46 46 45 45 44 44 43 42 40 39 37 36 35 34 33 32 32 33 35 36 37 38 39 38 38 36 34 33 31 30 29 29 28 26 25 24 23 23 23 23 23 23 22 21 20 20 19 19 18 18 18 18 18 17 17 17 17 17 16 16 16 17 17 17 18 18 18 18 17 15 13 12 11 11 13 15 16 18 18 16 13 11 8 8
46 46 46 46 45 44 43 43 42 41 39 38 37 36 35 34 33 32 32 33 35 36 38 39 39 39 39 38 36 34 33 32 31 29 28 27 26 25 24 24 24 24 24 24 24 23 21 20 20 19 19 18 18 18 18 18 18 18 17 17 17 18 18 18 18 18 18 18 18 17 16 14 13 12 11 12 14 14 16 18 18 16 13 9 8
46 46 46 46 45 44 43 42 42 41 40 40 38 37 36 35 34 33 32 32 32 34 36 37 38 39 39 39 38 37 36 34 32 30 29 27 26 26 25 25 25 25 25 25 26 25 24 23 21 20 19 19 19 19 19 19 19 19 18 18 18 19 19 19 19 19 18 19 19 18 17 16 14 12 12 12 13 15 16 18 18 17 15 12 10
45 45 46 46 44 43 43 42 42 42 41 40 39 38 37 36 35 33 32 31 31 32 33 35 36 37 38 38 37 37 36 35 32 30 29 27 26 26 26 26 26 26 26 26 26 26 26 25 24 22 21 20 19 20 20 20 21 20 20 19 19 20 20 20 20 20 20 21 21 19 18 17 14 13 12 11 12 14 16 17 18 17 17 15 11
44 44 44 44 44 43 43 42 42 42 41 40 39 38 37 36 35 34 33 31 30 30 31 33 34 35 36 36 36 36 36 34 32 30 29 27 26 26 27 27 27 27 27 27 26 26 26 26 25 25 24 22 21 20 20 21 21 21 20 20 20 20 21 22 22 22 22 22 21 19 19 19 16 13 13 12 12 14 15 17 18 17 18 18 15
42 43 43 42 42 43 43 43 42 42 41 41 40 39 38 37 36 36 34 33 31 31 31 32 33 33 34 35 35 36 35 33 31 30 28 27 27 27 27 27 28 28 28 28 27 26 26 26 26 26 25 24 23 22 22 21 21 21 21 21 21 22 23 23 24 23 23 23 22 21 20 20 18 15 14 13 13 15 16 18 19 18 19 19 18
40 41 41 41 41 42 42 42 42 42 41 40 40 39 39 39 38 37 36 34 33 33 32 32 32 32 33 34 34 34 34 32 30 29 28 27 27 27 27 28 28 29 29 29 28 27 27 27 27 27 26 25 25 24 23 23 22 22 22 22 23 23 23 24 24 24 23 23 23 23 22 20 19 17 15 14 15 16 18 19 20 20 20 20 20
39 39 39 39 39 39 40 40 40 40 39 39 39 40 39 39 39 38 37 36 36 35 34 33 33 32 32 33 33 34 33 32 30 30 29 28 27 27 28 28 28 29 29 29 28 28 28 28 28 28 27 27 27 26 25 24 24 24 24 24 24 23 22 23 23 23 23 24 25 26 24 21 21 19 17 17 17 18 19 21 21 21 21 21 22
36 37 37 37 37 37 38 38 38 37 36 36 36 38 39 39 39 38 38 37 37 36 35 34 33 33 33 33 33 34 33 32 31 30 29 28 28 28 28 28 29 29 29 29 29 28 28 28 29 29 29 29 29 28 27 27 26 26 27 26 25 23 22 22 21 21 22 24 26 27 25 24 23 22 20 19 19 19 20 22 22 22 21 22 22
33 34 34 34 35 35 36 36 37 36 36 35 35 34 34 34 36 38 39 39 39 37 37 36 34 33 33 33 34 35 34 32 32 31 30 29 28 28 28 29 29 30 30 29 29 28 28 29 29 29 29 30 30 29 29 28 28 28 28 27 26 25 24 23 22 21 22 24 26 27 27 27 25 23 21 19 20 21 22 23 22 21 21 21 23
30 32 34 34 33 34 35 35 35 35 36 38 37 32 25 23 26 30 35 40 42 41 38 36 34 33 33 33 34 35 35 33 32 31 30 29 29 29 29 29 30 30 30 29 29 29 29 29 29 29 30 30 30 30 29 29 29 29 29 28 27 26 26 24 23 22 22 23 25 27 28 28 27 25 22 21 22 22 23 22 21 20 20 21 23
22 26 30 32 33 34 35 36 35 35 35 36 38 36 28 21 18 19 24 31 38 43 42 39 35 33 32 32 33 35 35 34 33 32 31 30 30 30 30 30 30 30 30 29 29 29 29 30 30 30 30 30 29 29 29 29 30 30 29 28 28 28 27 25 24 24 23 23 24 25 26 26 26 25 23 23 23 22 21 20 20 20 20 22 22
13 18 23 27 30 31 33 35 36 36 35 34 35 38 36 28 20 17 18 21 26 33 38 41 38 35 32 32 32 33 34 34 33 33 32 31 31 31 30 31 31 30 30 30 30 30 30 30 30 30 31 30 29 29 30 30 31 31 30 29 30 30 28 26 25 25 24 24 23 23 23 23 22 21 20 20 19 19 19 19 19 20 21 21 21
5 11 16 22 27 29 30 32 33 35 36 35 33 34 35 33 28 22 20 20 21 26 32 38 39 36 33 32 31 31 32 33 33 33 32 32 32 32 31 32 32 31 30 30 30 31 31 31 31 31 31 30 30 30 31 31 31 31 30 31 32 30 27 26 26 25 25 25 23 22 21 20 19 18 18 18 19 19 20 20 20 20 20 20 20
5 8 11 16 22 26 27 29 30 32 33 34 34 32 31 32 32 28 23 22 24 28 32 36 38 36 34 33 32 30 30 30 31 32 33 33 33 33 33 33 33 31 30 30 31 31 31 31 31 30 29 29 29 30 30 31 31 31 31 32 32 29 27 26 27 26 25 26 24 23 22 21 21 20 20 20 21 21 20 20 20 20 20 19 18
11 12 12 12 15 19 22 24 27 29 30 32 33 33 30 30 31 31 29 27 27 30 33 35 37 37 35 35 34 32 30 28 28 30 31 33 33 33 34 34 33 31 30 31 32 32 31 31 31 30 28 27 26 26 27 28 27 28 30 30 28 26 24 24 24 24 25 25 25 25 25 24 23 23 23 23 23 22 22 21 20 20 18 17 16
11 13 14 15 15 15 16 19 22 25 28 29 31 31 29 29 31 33 33 32 31 32 32 34 36 37 37 37 36 34 32 30 28 28 29 30 32 33 34 34 32 31 32 32 32 31 31 31 31 30 28 27 26 25 24 24 24 24 25 25 22 20 20 21 22 23 24 24 26 27 26 25 25 25 25 24 23 22 22 21 19 17 17 16 16
8 9 11 14 16 16 17 18 20 22 24 26 28 29 29 29 30 32 33 34 35 35 33 33 35 37 38 38 38 36 34 32 30 28 28 28 30 32 33 33 32 32 32 33 33 32 31 30 29 28 28 27 26 25 24 23 23 22 22 21 19 18 20 21 22 22 24 26 28 28 27 27 27 26 25 24 23 22 22 20 18 17 18 18 18
10 9 9 10 13 16 18 19 20 22 23 25 26 28 29 29 29 29 32 34 36 37 36 34 35 36 37 38 38 37 36 33 31 30 29 28 28 29 31 31 31 31 32 33 33 32 31 29 28 27 26 26 26 26 26 25 24 23 22 22 21 21 22 23 24 24 26 28 29 29 28 26 25 24 23 22 21 21 21 20 19 20 21 21 21
14 11 10 10 11 14 17 19 20 23 25 27 29 29 30 30 29 29 31 33 35 36 37 37 36 36 36 37 38 38 37 36 34 33 31 30 29 29 29 29 30 30 32 33 32 31 30 29 28 27 26 27 27 28 28 27 27 26 25 25 25 25 25 25 26 27 28 29 29 29 27 25 24 23 22 22 22 22 21 21 22 22 22 22 21
16 14 12 12 13 12 15 17 19 22 25 28 31 33 33 32 31 31 32 33 35 37 38 39 39 38 37 37 37 38 38 37 36 35 34 33 31 29 29 29 30 31 32 32 32 31 30 29 29 29 29 29 29 30 30 30 30 30 29 29 29 29 28 27 27 28 29 29 28 28 26 24 24 25 24 23 22 22 22 23 23 22 21 20 20
17 16 14 14 15 14 13 15 17 19 22 25 29 34 35 34 34 34 35 35 35 37 38 39 38 36 35 35 35 35 36 37 37 36 35 33 30 28 28 29 30 31 32 32 32 30 29 30 31 32 32 32 32 32 32 32 33 32 32 32 32 31 30 29 29 30 30 29 29 28 27 26 26 26 25 24 24 24 24 23 22 22 21 20 20
15 16 15 15 18 17 13 14 16 18 19 22 25 30 34 35 35 36 37 36 36 36 37 37 35 33 33 34 34 35 34 32 30 30 30 30 29 27 27 27 28 29 29 29 29 30 29 31 33 34 34 34 35 34 34 35 35 35 34 34 34 33 32 32 32 32 31 29 29 29 27 27 27 26 25 26 27 26 25 24 23 23 23 22 21
15 15 13 15 19 20 15 14 17 18 18 19 22 25 29 32 34 35 36 37 36 36 36 36 35 34 35 35 34 34 33 28 25 25 27 28 28 28 27 26 26 25 25 26 29 31 32 33 34 35 35 35 35 35 36 36 36 36 36 35 35 34 34 34 33 32 31 30 30 30 29 28 28 28 28 29 29 27 26 25 25 24 23 22 21
17 16 13 13 16 18 16 15 16 18 18 18 19 21 25 28 32 34 35 36 35 36 37 38 37 38 39 38 36 36 34 31 30 29 28 28 28 28 28 27 26 25 25 26 29 32 33 34 35 36 35 36 36 36 36 37 37 37 36 36 35 35 35 35 34 33 32 32 32 32 32 32 30 30 30 30 29 28 28 28 27 26 24 23 22
17 17 15 13 13 15 17 16 16 17 18 17 17 19 21 25 29 31 32 33 33 34 35 37 37 38 39 39 39 38 36 34 33 33 30 29 28 27 27 27 25 24 25 27 30 33 33 34 35 35 35 35 35 34 35 37 37 37 36 36 36 35 35 35 34 32 33 34 34 34 35 37 35 32 31 31 30 29 29 28 27 27 26 25 23
15 16 16 15 14 15 17 16 15 15 17 18 17 18 19 22 26 28 28 29 30 31 32 34 35 36 36 37 38 38 36 34 34 34 34 32 30 28 28 27 26 26 27 29 33 35 35 35 35 35 35 34 32 32 34 35 36 35 35 35 34 34 34 34 33 33 35 37 37 35 35 37 36 31 29 31 32 30 29 27 25 26 27 27 26
15 14 15 15 16 16 15 15 14 15 17 18 19 19 20 21 23 25 25 26 27 28 31 32 34 35 36 36 36 35 35 34 35 35 35 34 32 30 30 29 29 29 30 32 34 35 35 35 35 35 34 32 30 31 33 34 34 33 33 32 33 35 36 35 35 36 36 36 37 35 34 36 35 30 28 31 33 31 30 27 26 27 28 28 26
16 14 13 14 16 18 17 16 15 16 17 18 20 21 22 23 23 24 24 24 25 27 29 30 32 33 34 34 34 34 35 36 37 36 36 35 34 33 33 33 34 34 34 35 36 36 35 35 35 34 33 31 30 31 31 32 32 32 32 33 34 36 37 37 37 37 35 34 35 36 34 34 33 30 29 31 32 30 28 27 27 27 26 25 25
18 15 13 13 14 16 18 18 17 17 19 20 21 22 24 25 25 25 25 25 27 29 30 31 31 32 33 34 34 35 36 37 38 38 38 37 37 37 37 37 37 37 36 36 36 36 36 36 35 34 32 31 31 32 31 31 31 32 33 34 36 37 39 39 39 38 37 35 35 34 33 33 33 33 32 31 30 27 25 24 24 23 23 24 25
19 17 14 13 13 14 16 17 18 18 20 21 23 24 25 26 27 28 28 28 30 31 33 34 35 35 35 35 34 35 36 37 38 40 40 41 41 40 40 40 39 39 38 36 36 36 36 35 35 34 33 33 32 32 32 31 31 32 33 35 37 38 39 40 39 38 37 35 34 34 33 31 33 35 32 27 25 25 24 24 24 24 24 23 24
18 17 15 14 13 14 15 17 18 18 19 21 23 25 27 28 29 29 29 30 32 33 34 35 36 37 37 36 35 35 36 37 38 41 42 43 43 42 41 41 40 40 38 36 36 36 36 35 35 35 34 34 33 32 32 32 32 33 33 34 36 38 39 40 39 36 35 35 34 32 30 29 31 32 29 23 19 21 23 25 26 25 24 24 24
18 16 15 14 13 13 14 16 17 18 19 20 21 24 27 29 30 31 31 31 32 33 33 34 35 37 37 37 37 37 37 37 39 41 42 44 44 43 42 41 41 40 39 38 37 37 37 37 36 35 34 34 32 31 31 32 32 33 34 35 37 39 39 39 37 34 32 32 29 27 27 26 26 26 24 21 19 20 23 25 26 24 23 25 27
18 16 15 14 13 13 13 14 16 18 19 20 21 22 25 27 30 31 33 33 33 32 32 32 33 35 35 36 37 37 37 37 38 40 42 44 44 41 41 42 42 40 39 39 39 39 38 38 36 35 34 33 31 31 32 33 34 35 36 37 38 38 37 37 35 33 30 27 24 23 24 23 21 21 22 21 22 23 24 25 25 23 22 25 27
18 16 15 15 14 13 11 12 13 16 18 20 21 22 23 25 27 29 31 32 34 33 33 33 33 33 32 31 31 32 34 36 37 39 42 43 39 36 37 41 42 42 43 43 41 39 39 40 39 36 35 33 32 32 33 35 36 36 36 36 36 34 33 33 33 31 27 23 21 20 20 18 18 20 22 22 23 23 23 22 23 22 22 23 24
17 15 15 16 16 15 13 12 13 15 16 18 21 22 23 23 24 26 28 30 31 32 33 34 34 33 32 29 28 28 30 32 35 37 38 39 37 35 37 40 40 41 43 43 41 39 40 41 41 39 38 37 35 34 34 36 37 36 35 34 33 32 30 30 29 27 23 21 19 17 16 16 18 22 24 23 22 21 20 20 21 21 22 23 24
17 14 13 14 16 16 15 14 14 16 18 19 20 22 23 23 23 23 24 26 27 28 30 31 32 33 34 32 29 27 27 29 31 32 34 35 35 35 37 39 40 40 40 40 40 40 40 40 40 41 40 39 37 36 36 37 37 36 36 35 33 30 28 26 25 24 22 19 17 16 17 20 22 25 24 23 21 20 20 21 21 20 21 23 24
15 13 11 13 15 15 15 15 16 17 18 19 21 23 24 23 22 21 21 22 23 24 25 27 28 29 31 31 29 28 27 27 29 30 31 33 33 33 35 37 38 40 40 40 40 40 40 39 39 40 40 40 39 39 38 37 36 37 36 34 30 27 24 21 20 21 22 21 19 18 20 22 24 24 23 21 21 21 20 20 19 18 19 21 22
13 11 10 12 14 14 14 14 14 15 16 18 21 23 23 22 21 19 18 18 18 19 20 22 23 24 26 27 27 27 27 28 29 30 31 32 32 33 35 37 37 40 42 41 40 40 40 38 37 37 38 39 39 38 38 38 36 36 34 30 25 22 19 17 17 19 21 22 20 18 17 19 21 21 20 19 19 18 17 17 16 17 18 20 20
11 10 9 10 12 13 13 13 12 13 15 17 20 21 21 20 18 17 15 14 14 14 15 16 17 19 21 22 24 25 26 27 28 28 29 31 32 33 35 37 37 39 41 40 40 39 37 34 33 35 36 37 36 34 34 33 32 31 31 27 22 19 17 17 18 18 18 18 17 15 14 16 18 19 18 17 17 16 16 16 17 18 18 19 19
9 9 8 9 10 11 11 12 13 13 15 16 18 19 19 18 16 15 13 12 11 11 11 12 13 14 16 19 21 23 24 25 26 26 27 29 31 33 35 36 37 37 37 37 36 34 32 30 30 30 30 28 26 24 23 23 23 24 23 20 19 19 19 20 20 18 15 14 13 13 13 15 17 18 17 16 16 16 17 18 18 18 18 18 18
7 7 7 7 8 8 9 11 12 13 13 14 15 16 16 15 13 12 11 9 8 8 8 8 10 12 15 17 19 20 21 22 23 24 25 26 27 28 28 30 32 34 33 32 30 28 25 24 24 22 20 20 19 18 18 18 19 19 18 18 20 21 21 20 18 16 15 15 14 13 14 15 16 17 16 16 16 18 18 18 18 17 17 17 17
5 5 5 5 5 6 7 9 10 10 11 11 12 12 12 12 11 10 9 7 6 6 6 6 9 11 13 15 15 16 17 18 19 20 21 22 21 19 18 19 22 24 25 24 24 23 22 22 21 19 18 20 23 23 22 20 20 20 20 20 20 21 21 18 16 17 19 20 18 16 15 15 15 16 16 16 16 17 17 16 16 16 16 16 17
3 3 3 3 3 3 4 6 7 7 8 8 8 8 8 9 8 8 7 4 2 2 3 4 5 7 8 9 11 12 14 15 15 17 18 18 17 17 19 21 22 23 25 26 26 26 26 26 25 25 24 25 26 26 25 24 22 20 19 18 18 18 18 18 18 19 21 22 20 18 16 15 15 16 16 16 16 16 16 15 15 15 15 16 16
2 1 1 0 1 2 2 2 3 3 4 4 4 5 6 7 6 6 4 2 1 3 3 4 5 6 7 8 9 11 12 12 13 14 16 17 19 22 26 29 30 31 32 33 33 33 32 31 30 29 28 27 26 25 25 24 22 21 20 19 18 17 16 16 17 19 19 19 18 17 16 16 16 15 16 16 16 16 16 16 16 15 15 15 15
Wind_Direction
231 232 233 233 234 235 235 234 234 234 234 233 234 234 234 235 236 238 239 240 240 239 235 234 237 241 244 248 253 257 258 258 258 260 260 258 256 254 251 246 241 240 240 243 246 247 247 242 239 240 242 248 253 257 262 268 274 282 291 299 305 307 311 315 315 314 319 326 321 306 299 298 306 322 329 333 335 338 340 333 324 321 323 322 316
232 232 233 234 234 235 236 236 236 236 236 236 236 236 237 237 238 238 239 240 242 242 241 240 241 245 248 251 255 259 262 264 264 263 265 264 261 256 254 252 248 244 241 241 243 246 248 246 242 241 246 251 255 256 260 266 272 279 287 294 298 301 304 308 310 310 313 320 322 312 299 296 303 321 330 333 335 337 340 339 332 322 322 321 312
233 233 234 235 236 236 236 237 237 237 237 238 238 239 240 241 241 241 241 242 243 244 244 243 244 246 249 252 256 259 262 266 266 266 266 266 265 261 257 255 253 250 248 246 246 247 247 247 245 245 248 253 256 257 259 264 270 277 283 287 291 293 296 299 302 305 308 313 318 316 308 301 304 318 327 330 333 335 337 340 339 331 322 317 311
233 233 234 236 237 237 237 238 238 238 239 239 239 240 241 242 244 244 245 245 245 246 246 247 247 249 250 252 255 259 262 265 268 268 267 267 266 264 260 257 255 253 252 252 251 251 251 250 248 248 250 254 257 258 259 262 267 274 278 281 285 288 289 291 294 298 302 305 310 313 313 310 308 314 321 325 329 332 334 338 340 335 323 316 314
233 233 235 236 237 238 238 239 239 239 240 241 241 241 242 242 244 246 247 248 248 249 249 249 250 251 252 253 256 258 261 264 267 268 268 267 267 265 262 259 257 255 254 253 253 253 253 253 252 252 252 253 254 256 258 262 265 270 274 277 282 285 285 286 288 291 294 298 302 306 309 311 308 309 317 321 324 327 331 336 339 337 326 316 316
232 234 235 236 237 238 239 240 240 241 242 242 243 244 244 244 244 245 247 249 250 251 251 251 252 253 254 255 257 258 260 263 265 266 267 266 267 266 263 260 256 255 254 253 253 252 252 252 252 253 253 253 254 255 258 262 266 269 272 275 278 280 280 280 282 284 287 291 296 299 303 306 303 304 312 317 321 326 328 331 336 337 331 317 311
232 233 235 236 237 239 239 241 242 243 244 244 245 245 246 246 247 247 247 248 250 251 252 253 254 254 255 256 257 258 260 262 263 264 264 264 265 265 264 260 256 253 253 253 253 252 251 251 251 251 251 252 253 255 257 261 264 267 270 272 273 272 272 273 275 277 281 284 288 292 296 297 296 297 304 311 317 323 323 324 330 335 334 323 305
231 233 235 236 238 240 241 242 243 244 245 246 246 246 247 247 248 249 249 249 249 250 252 253 254 255 256 256 258 259 260 261 262 262 262 261 262 262 261 259 255 252 251 251 252 252 251 251 251 250 250 251 253 255 256 258 260 263 265 266 267 267 267 268 269 271 274 277 280 284 287 287 287 288 294 304 312 318 318 319 324 329 332 328 307
231 233 234 237 239 241 242 243 244 244 245 246 247 247 248 248 248 249 250 250 250 250 251 252 254 254 255 256 257 258 259 260 260 259 259 259 259 259 258 256 253 251 250 250 250 251 251 251 250 251 251 251 252 253 254 255 257 259 261 262 264 266 266 266 266 267 270 272 275 277 278 278 278 278 283 295 306 312 314 315 317 320 324 325 313
231 232 234 238 240 242 242 243 244 244 245 246 248 248 249 249 249 249 250 251 252 251 251 252 253 253 254 254 255 256 256 257 257 256 257 257 257 257 256 254 252 250 249 249 250 250 251 251 251 251 251 251 250 251 251 253 255 257 258 260 263 266 267 266 265 266 269 271 272 272 272 271 270 272 279 289 299 305 309 312 313 315 317 317 313
231 233 235 238 240 241 242 243 244 245 246 247 248 249 250 250 250 250 251 252 252 252 252 252 252 252 253 253 253 253 254 254 254 254 254 254 254 254 253 253 251 249 249 249 249 250 251 252 251 251 251 250 249 249 249 251 252 254 255 257 261 264 266 266 265 266 269 270 269 268 267 267 266 268 278 288 295 299 305 309 311 312 312 311 311
232 234 236 238 240 241 242 243 244 245 247 248 249 250 251 251 251 251 252 252 252 252 252 252 252 251 252 252 252 252 252 251 251 251 251 250 251 251 251 252 251 250 249 249 248 248 249 250 250 250 249 249 249 249 249 249 250 251 253 255 259 262 263 265 266 268 268 267 266 264 263 266 267 270 281 292 294 297 302 306 308 310 308 307 309
233 235 236 237 239 240 242 243 245 246 248 249 251 252 251 252 252 253 253 254 254 253 253 252 252 252 252 252 252 251 250 249 248 248 247 246 246 248 249 250 250 250 249 249 249 247 247 248 248 248 247 247 248 249 250 250 250 250 252 254 258 260 262 263 266 267 266 263 263 263 263 266 270 273 283 292 292 294 299 301 303 305 305 304 305
233 234 236 237 238 239 241 243 244 247 249 251 252 252 253 254 255 256 256 256 255 255 254 254 253 252 252 252 252 252 250 248 247 246 245 244 243 245 248 250 250 250 249 249 249 248 247 247 247 247 246 246 247 249 250 251 251 252 253 256 258 258 259 261 263 265 263 260 263 266 265 268 272 276 282 287 287 290 293 295 298 301 302 303 302
234 235 235 236 238 238 240 242 243 245 247 248 251 252 254 255 257 258 259 259 258 257 256 256 255 254 253 253 253 252 249 246 246 245 244 244 243 245 247 249 250 250 249 248 248 248 247 247 247 247 245 246 247 249 250 251 252 254 255 257 258 258 257 258 260 262 261 258 260 264 265 268 272 277 281 285 286 288 291 293 295 297 299 301 300
230 233 235 236 237 238 239 240 241 243 243 244 244 246 250 255 258 260 260 260 260 260 258 256 256 255 254 253 253 251 247 244 244 244 243 243 244 246 247 249 250 250 249 248 247 247 247 248 248 248 246 246 246 248 250 251 253 254 256 257 258 258 257 257 258 260 260 258 258 260 262 264 268 271 276 280 283 287 290 290 290 293 296 298 298
223 226 229 233 235 237 239 240 240 241 242 243 241 239 241 252 259 263 264 262 260 260 259 258 257 256 255 254 252 249 245 242 242 242 242 243 244 246 247 248 249 250 249 248 247 247 247 247 248 249 248 246 245 246 248 250 252 254 255 256 258 258 258 258 258 259 259 260 259 259 260 262 263 265 269 274 280 284 284 284 285 290 294 295 295
218 219 222 227 231 235 238 239 240 241 242 245 245 241 239 242 248 254 264 266 263 260 259 259 259 258 256 254 252 250 246 242 241 241 241 242 244 245 246 248 250 250 249 248 247 246 246 246 248 249 249 246 244 245 247 249 252 253 255 257 258 258 258 258 259 260 260 261 262 262 262 264 265 266 269 272 276 278 277 279 283 287 290 293 294
206 215 220 222 225 231 235 238 241 243 244 247 249 247 245 246 247 243 244 252 260 261 260 258 258 259 258 256 255 253 249 244 241 240 239 239 242 244 246 248 250 250 249 248 247 246 245 244 245 247 248 247 245 245 246 249 251 253 255 258 260 259 258 259 260 262 263 264 264 263 263 264 265 267 267 268 271 272 275 280 284 286 289 291 290
186 211 228 228 227 228 231 235 240 243 245 247 248 248 248 249 251 249 244 243 252 261 261 258 257 259 259 258 257 255 252 248 243 240 238 238 240 242 244 247 248 248 248 248 247 246 245 244 244 245 246 247 247 246 247 249 252 254 256 258 259 260 261 262 263 264 266 267 266 264 262 261 261 261 261 263 266 271 278 283 285 287 289 287 280
223 214 230 234 235 235 233 234 238 241 245 248 248 249 250 250 250 252 254 254 254 257 258 257 257 259 259 258 258 257 255 251 246 242 240 239 240 241 243 245 246 247 248 248 248 247 246 245 244 244 245 246 247 247 249 251 254 256 257 258 260 262 264 264 265 266 267 267 265 263 261 260 260 261 262 265 268 273 280 285 287 288 286 280 272
259 246 240 239 241 241 240 240 240 241 243 246 247 247 247 248 248 250 254 257 255 255 256 257 258 259 259 258 258 257 256 255 252 247 244 242 241 242 243 243 245 247 248 247 247 247 247 246 246 246 246 247 247 249 251 254 257 258 259 260 263 265 265 265 265 265 265 264 262 261 260 260 261 262 264 267 271 277 284 288 287 285 281 272 265
271 260 252 247 242 239 240 242 243 243 242 241 242 242 241 242 243 245 249 252 253 253 255 256 257 258 259 259 258 257 256 256 255 252 248 245 243 242 242 243 245 247 247 247 247 247 247 247 247 247 248 249 250 251 253 257 261 261 261 263 266 266 265 264 263 263 263 262 261 260 260 261 262 263 265 269 275 281 285 285 280 275 271 266 263
296 280 269 255 244 236 236 238 240 243 243 240 237 235 235 237 239 242 247 250 250 251 252 254 256 257 258 259 258 258 257 256 256 255 253 249 245 242 241 243 244 245 247 247 247 247 247 247 247 248 251 252 253 254 256 259 262 262 262 263 264 263 262 263 264 265 265 263 263 263 263 263 265 267 269 272 277 279 277 273 267 263 262 263 263
322 311 298 277 255 240 234 234 236 240 241 241 239 237 235 235 237 242 245 247 249 250 250 251 253 255 258 259 259 259 258 257 257 256 254 253 250 246 244 244 244 244 245 246 246 247 248 249 249 250 252 254 255 257 257 259 261 262 262 262 261 260 261 263 265 266 265 264 265 267 269 270 272 272 272 271 270 268 265 260 255 254 255 257 259
329 326 322 312 285 255 240 235 234 236 237 238 240 241 240 238 238 242 244 244 246 249 249 249 250 252 255 258 259 259 259 258 258 258 256 255 253 251 250 248 246 246 246 246 247 248 248 250 252 252 252 254 256 258 258 258 260 260 259 258 257 257 258 260 262 263 264 266 268 271 274 275 274 270 266 263 260 258 256 252 248 247 249 252 255
328 324 325 327 316 284 254 242 238 237 236 235 237 239 240 239 239 241 242 242 244 246 247 248 248 249 252 255 257 258 259 259 259 258 257 256 255 255 254 252 249 248 246 245 246 246 246 248 251 252 253 254 256 257 257 257 256 255 254 253 254 255 257 259 262 263 264 265 268 271 272 271 266 262 258 256 256 254 250 245 244 245 248 250 253
329 324 321 323 320 302 270 253 249 245 239 235 234 236 237 238 239 241 242 243 243 244 246 247 247 248 251 253 255 256 258 260 260 259 259 259 258 257 257 255 252 249 246 244 244 245 246 249 251 253 253 254 255 256 256 256 255 254 253 254 254 256 258 261 263 262 262 263 265 267 267 266 262 258 255 253 250 246 241 238 238 242 245 247 251
329 327 320 312 308 301 282 261 257 254 247 240 235 233 234 237 240 243 246 246 245 245 246 246 248 251 255 256 255 254 256 260 264 265 265 264 263 262 261 261 259 256 253 251 250 249 249 249 250 251 252 253 254 255 256 256 257 256 256 256 257 259 261 263 262 261 261 262 264 265 264 261 258 254 251 248 245 242 239 239 240 243 244 244 246
324 325 319 306 298 296 287 266 257 255 252 249 243 237 233 234 238 242 244 245 247 248 249 249 252 255 259 261 260 259 262 268 274 273 271 269 268 267 267 268 268 266 263 259 255 252 250 249 250 250 251 252 254 255 256 258 259 259 259 260 262 264 265 263 262 261 261 262 263 262 259 256 254 251 247 245 245 244 245 247 248 251 250 245 242
323 323 320 307 296 292 285 269 255 249 248 251 251 246 238 234 234 237 240 241 244 248 251 254 255 257 259 262 264 265 267 271 271 270 269 269 269 269 268 269 270 269 266 261 255 252 250 249 250 250 250 251 253 255 257 260 261 262 263 264 265 266 265 262 261 260 261 261 261 259 255 252 252 251 248 247 246 248 251 253 253 254 250 242 237
322 322 319 309 296 286 279 271 258 245 242 245 248 247 243 238 234 233 235 238 241 246 250 254 256 257 258 260 262 264 266 267 268 267 266 267 268 268 267 268 270 269 266 260 255 251 249 248 249 250 251 252 254 256 259 261 263 265 267 267 267 264 261 260 260 260 261 262 260 257 253 250 248 246 246 248 248 247 249 249 248 247 244 236 229
317 317 315 310 300 287 279 274 264 249 241 241 242 242 240 239 238 238 238 240 244 248 251 253 254 255 256 258 259 261 263 265 266 266 265 265 265 266 266 267 268 266 262 257 253 251 249 248 249 250 251 253 255 258 259 261 263 266 267 267 265 262 260 261 262 263 264 264 262 258 254 253 252 249 246 247 248 248 249 247 241 239 236 229 226
309 309 310 309 306 300 291 282 273 261 248 243 242 242 242 241 242 246 249 249 249 248 249 251 254 255 256 257 258 260 261 262 263 263 262 262 262 263 264 263 261 259 256 254 253 252 250 250 251 251 252 254 256 257 259 261 262 264 264 263 261 260 261 263 266 267 268 269 268 265 260 258 257 252 248 249 250 250 250 245 235 230 230 228 228
304 303 303 306 309 309 304 295 286 277 266 254 245 243 245 245 244 246 250 253 253 251 249 250 252 256 258 259 259 260 261 261 261 261 261 260 260 259 258 257 255 254 252 251 251 251 250 250 251 252 252 253 254 254 256 259 260 260 259 258 257 258 261 264 267 268 269 271 271 269 267 266 262 253 246 245 247 248 248 240 229 225 228 229 230
302 301 301 303 307 308 306 302 296 288 279 270 258 248 245 246 246 245 246 250 253 255 254 254 256 257 258 259 260 261 261 262 262 262 261 260 258 256 254 254 254 254 253 253 253 253 252 251 252 253 252 251 250 250 252 255 257 256 255 254 255 257 260 262 264 266 268 268 266 265 267 270 267 258 246 236 234 237 237 231 223 222 226 229 229
299 301 302 302 302 302 302 302 302 297 289 282 272 261 252 248 246 244 243 246 249 253 256 259 261 261 259 258 258 260 261 262 262 261 259 257 255 253 253 254 254 256 256 256 255 254 253 252 252 253 252 250 249 250 251 252 253 253 252 253 255 257 259 262 264 268 270 268 264 262 262 263 264 260 251 239 232 227 222 219 220 222 225 227 227
295 298 300 301 301 299 296 297 300 301 297 291 284 275 265 257 251 247 245 245 246 249 253 256 260 262 262 260 260 262 263 263 261 259 257 255 253 253 253 254 254 255 257 258 257 255 254 253 253 252 252 252 252 253 253 253 253 254 254 256 257 259 260 262 264 266 268 266 262 260 258 258 259 259 256 250 242 229 220 220 222 221 220 221 221
289 291 295 300 302 299 295 294 296 299 300 297 292 286 277 267 258 252 250 249 249 249 250 252 255 258 261 263 264 265 265 263 262 261 260 258 255 254 254 254 254 255 256 258 258 256 254 253 253 252 253 253 253 254 254 254 255 255 254 255 256 258 260 262 263 264 265 262 257 253 250 251 256 260 257 250 243 235 231 229 225 219 219 221 219
288 288 291 299 303 300 297 297 297 298 299 298 295 291 285 278 269 261 256 254 255 254 253 253 252 254 257 262 266 267 267 267 268 267 265 261 257 256 256 256 257 259 259 258 258 257 256 254 252 252 252 252 253 255 255 255 254 254 253 254 256 258 261 263 262 261 259 253 245 241 240 240 248 258 258 251 246 245 241 236 228 221 221 222 220
290 288 288 295 303 304 304 305 305 303 301 299 297 294 290 285 279 272 265 260 258 258 258 258 256 255 257 261 265 267 268 269 268 267 265 263 263 264 263 261 259 259 258 256 256 257 258 257 255 254 253 252 253 254 255 255 254 254 254 256 258 258 259 260 257 253 249 242 233 234 238 240 246 257 260 259 256 252 242 232 226 223 222 222 222
288 286 285 290 298 305 306 305 308 310 308 305 302 299 295 290 284 279 273 269 265 262 261 261 260 260 261 262 264 265 266 266 265 264 265 267 268 266 263 263 262 261 259 257 257 258 259 259 258 257 254 251 250 250 252 254 255 254 254 255 255 254 253 253 250 246 240 234 231 237 245 249 254 259 260 258 253 244 232 225 225 225 223 219 216
285 286 289 292 297 304 305 303 304 308 309 309 307 305 302 299 294 286 280 275 271 268 267 265 264 264 264 264 265 267 268 268 268 268 267 269 269 266 264 264 265 263 261 259 260 260 259 259 261 260 256 253 252 251 252 254 254 253 252 250 248 245 242 241 241 238 232 230 238 250 256 255 256 257 255 249 240 233 229 229 229 223 216 211 207
285 290 299 301 301 304 306 305 304 305 306 308 309 310 309 308 305 299 292 284 278 273 271 270 269 269 269 269 269 270 271 273 273 273 271 272 273 272 269 267 265 263 261 260 259 259 257 257 260 261 259 257 255 255 255 254 253 251 250 247 240 234 231 229 229 228 224 224 233 248 255 255 253 251 246 239 233 229 228 226 222 214 208 207 208
290 296 307 309 308 311 314 316 314 312 310 309 310 311 313 314 313 311 307 300 292 284 277 273 270 269 269 269 268 268 269 270 270 271 271 272 272 271 268 266 264 263 260 258 256 255 253 252 255 258 259 258 256 256 259 260 255 248 244 238 228 220 217 215 215 215 214 216 224 236 244 245 244 241 236 231 229 225 220 214 210 208 207 210 213
299 305 315 318 317 318 325 334 335 330 324 319 316 316 317 319 321 322 320 316 309 299 289 280 272 267 265 265 264 262 262 262 262 263 264 265 266 265 263 261 258 256 254 252 250 248 246 246 250 253 254 255 255 256 258 259 252 241 233 224 211 199 195 196 197 197 198 203 210 216 220 226 228 228 224 221 217 212 207 206 209 210 211 214 217
311 316 325 326 321 319 327 339 345 342 333 326 324 324 324 325 327 327 327 325 318 307 295 285 276 267 261 257 254 252 250 251 252 252 253 254 253 252 251 250 248 246 244 242 239 237 236 237 241 242 240 240 242 242 240 236 232 227 219 204 187 176 173 173 173 174 181 192 198 199 206 216 219 217 212 210 209 208 209 211 213 214 216 219 220
319 322 326 324 317 317 327 337 344 345 340 334 332 331 329 328 328 328 327 323 315 304 290 276 264 255 248 243 240 238 237 238 239 239 240 241 239 237 237 239 240 239 235 230 224 221 220 223 224 222 216 208 202 201 202 202 202 199 188 174 168 168 168 166 166 169 178 187 192 193 200 209 212 209 206 205 207 211 213 214 214 214 215 216 216
313 314 320 318 313 320 335 342 345 350 351 346 341 337 333 329 329 333 332 325 311 295 279 258 245 239 236 234 230 226 224 224 224 223 224 225 223 217 211 211 215 216 212 206 201 198 198 198 196 191 184 177 172 171 173 176 178 178 173 167 164 166 171 179 186 184 180 180 181 183 189 198 203 205 207 207 208 209 209 208 210 212 214 218 222
286 291 302 311 319 336 353 351 351 2 6 356 346 343 342 340 340 343 341 335 314 279 252 234 227 225 225 225 222 218 214 211 206 204 204 202 196 185 173 168 170 174 176 175 172 170 171 171 167 163 163 162 159 157 158 161 165 167 166 163 162 162 164 170 174 173 171 171 172 175 184 195 201 204 205 204 204 205 205 206 210 215 220 226 231
224 225 228 291 6 33 45 30 24 39 34 15 8 18 16 8 5 3 1 11 115 140 156 163 165 168 173 178 183 190 193 189 184 184 186 182 174 166 158 152 148 150 154 157 155 152 152 152 150 149 150 151 149 147 147 150 155 158 158 159 161 158 153 153 155 158 162 165 168 174 186 196 201 201 201 201 203 206 208 210 215 220 225 231 236